| time (UTC) | temp F | wind direction | speed MPH | gust MPH | rain 1hr in | rain 24hr in | rain mn in | humidity % | barometer mb |
| 20260903090554 | 62 | 200 | 0.0 | 1.0 | 0.00 | 0.00 | 0.00 | 95 | 1016.4 |
| 20260903090054 | 61 | 200 | 0.0 | 0.0 | 0.00 | 0.00 | 0.00 | 95 | 1016.4 |
| 20260903085553 | 61 | 200 | 0.0 | 1.0 | 0.00 | 0.00 | 0.00 | 95 | 1016.2 |
| 20260903085053 | 61 | 200 | 0.0 | 1.0 | 0.00 | 0.00 | 0.00 | 95 | 1016.3 |
| 20260903084553 | 61 | 200 | 0.0 | 3.0 | 0.00 | 0.00 | 0.00 | 95 | 1016.2 |
| 20260903084053 | 61 | 201 | 0.0 | 3.0 | 0.00 | 0.00 | 0.00 | 95 | 1016.3 |
| 20260903083553 | 61 | 202 | 0.0 | 2.0 | 0.00 | 0.00 | 0.00 | 95 | 1016.3 |
| 20260903083053 | 61 | 200 | 0.0 | 4.0 | 0.00 | 0.00 | 0.00 | 95 | 1016.2 |
| 20260903082654 | 61 | 198 | 1.0 | 4.0 | 0.00 | 0.00 | 0.00 | 95 | 1016.2 |
| 20260903082051 | 61 | 113 | 0.0 | 2.0 | 0.00 | 0.00 | 0.00 | 95 | 1016.1 |
| 20260903081551 | 61 | 106 | 0.0 | 0.0 | 0.00 | 0.00 | 0.00 | 95 | 1016.0 |
| 20260903081049 | 61 | 103 | 0.0 | 0.0 | 0.00 | 0.00 | 0.00 | 95 | 1016.0 |
| 20260903080549 | 61 | 103 | 0.0 | 0.0 | 0.00 | 0.00 | 0.00 | 94 | 1016.1 |
| 20260903080058 | 61 | 103 | 0.0 | 0.0 | 0.00 | 0.00 | 0.00 | 94 | 1016.3 |
| 20260903075548 | 61 | 103 | 0.0 | 0.0 | 0.00 | 0.00 | 0.00 | 94 | 1016.4 |
| 20260903075047 | 61 | 103 | 0.0 | 0.0 | 0.00 | 0.00 | 0.00 | 94 | 1016.4 |
| 20260903074547 | 61 | 103 | 0.0 | 0.0 | 0.00 | 0.00 | 0.00 | 94 | 1016.5 |
| 20260903074047 | 61 | 103 | 0.0 | 0.0 | 0.00 | 0.00 | 0.00 | 94 | 1016.7 |
| 20260903073547 | 61 | 103 | 0.0 | 0.0 | 0.00 | 0.00 | 0.00 | 94 | 1016.7 |
| 20260903073051 | 61 | 104 | 0.0 | 0.0 | 0.00 | 0.00 | 0.00 | 94 | 1016.6 |
| 20260903072545 | 61 | 104 | 0.0 | 0.0 | 0.00 | 0.00 | 0.00 | 94 | 1016.7 |
| 20260903072046 | 61 | 104 | 0.0 | 0.0 | 0.00 | 0.00 | 0.00 | 94 | 1016.8 |
| 20260903071545 | 61 | 104 | 0.0 | 0.0 | 0.00 | 0.00 | 0.00 | 94 | 1016.9 |
| 20260903071043 | 61 | 104 | 0.0 | 0.0 | 0.00 | 0.00 | 0.00 | 94 | 1017.1 |
| 20260903070543 | 61 | 103 | 0.0 | 0.0 | 0.00 | 0.00 | 0.00 | 94 | 1017.2 |
| 20260903070043 | 61 | 103 | 0.0 | 0.0 | 0.00 | 0.00 | 0.00 | 94 | 1017.2 |
| 20260903065542 | 61 | 103 | 0.0 | 0.0 | 0.00 | 0.00 | 0.00 | 94 | 1017.4 |
| 20260903065041 | 61 | 103 | 0.0 | 0.0 | 0.00 | 0.00 | 0.00 | 94 | 1017.4 |
| 20260903064540 | 61 | 103 | 0.0 | 0.0 | 0.00 | 0.00 | 0.00 | 94 | 1017.5 |
| 20260903064040 | 61 | 103 | 0.0 | 0.0 | 0.00 | 0.00 | 0.00 | 94 | 1017.7 |
| 20260903063541 | 61 | 103 | 0.0 | 0.0 | 0.00 | 0.00 | 0.00 | 94 | 1017.6 |
| 20260903063040 | 61 | 103 | 0.0 | 0.0 | 0.00 | 0.00 | 0.00 | 94 | 1017.6 |
| 20260903062540 | 61 | 103 | 0.0 | 0.0 | 0.00 | 0.00 | 0.00 | 94 | 1017.6 |
| 20260903062039 | 61 | 103 | 0.0 | 0.0 | 0.00 | 0.00 | 0.00 | 94 | 1017.7 |
| 20260903061539 | 61 | 103 | 0.0 | 1.0 | 0.00 | 0.00 | 0.00 | 94 | 1017.9 |
| 20260903061040 | 61 | 103 | 0.0 | 1.0 | 0.00 | 0.00 | 0.00 | 94 | 1018.0 |
| 20260903060538 | 61 | 103 | 0.0 | 1.0 | 0.00 | 0.00 | 0.00 | 94 | 1017.9 |
| 20260903060038 | 61 | 103 | 0.0 | 1.0 | 0.00 | 0.00 | 0.00 | 94 | 1018.0 |
| 20260903055536 | 61 | 103 | 0.0 | 1.0 | 0.00 | 0.00 | 0.00 | 94 | 1018.0 |
| 20260903055039 | 61 | 103 | 0.0 | 1.0 | 0.00 | 0.00 | 0.00 | 94 | 1018.2 |
| 20260903054536 | 61 | 103 | 0.0 | 1.0 | 0.00 | 0.00 | 0.00 | 94 | 1018.3 |
| 20260903054035 | 61 | 103 | 0.0 | 1.0 | 0.00 | 0.00 | 0.00 | 94 | 1018.4 |
| 20260903053538 | 61 | 103 | 0.0 | 2.0 | 0.00 | 0.00 | 0.00 | 94 | 1018.5 |
| 20260903053035 | 61 | 103 | 0.0 | 2.0 | 0.00 | 0.00 | 0.00 | 94 | 1018.4 |
| 20260903052535 | 61 | 103 | 0.0 | 1.0 | 0.00 | 0.00 | 0.00 | 94 | 1018.4 |
| 20260903052035 | 61 | 103 | 0.0 | 1.0 | 0.00 | 0.00 | 0.00 | 94 | 1018.4 |
| 20260903051535 | 61 | 103 | 0.0 | 2.0 | 0.00 | 0.00 | 0.00 | 94 | 1018.4 |
| 20260903051034 | 61 | 103 | 0.0 | 2.0 | 0.00 | 0.00 | 0.00 | 94 | 1018.3 |
| 20260903050532 | 61 | 103 | 0.0 | 2.0 | 0.00 | 0.00 | 0.00 | 94 | 1018.4 |
| 20260903050033 | 61 | 103 | 0.0 | 1.0 | 0.00 | 0.00 | 0.00 | 94 | 1018.7 |
| 20260903045532 | 61 | 103 | 0.0 | 2.0 | 0.00 | 0.00 | 0.00 | 94 | 1018.7 |
| 20260903045033 | 61 | 103 | 0.0 | 3.0 | 0.00 | 0.00 | 0.00 | 94 | 1018.6 |
| 20260903044536 | 61 | 98 | 0.0 | 3.0 | 0.00 | 0.00 | 0.00 | 93 | 1018.6 |
| 20260903044031 | 61 | 96 | 0.0 | 3.0 | 0.00 | 0.00 | 0.00 | 93 | 1018.8 |
| 20260903043529 | 61 | 96 | 0.0 | 2.0 | 0.00 | 0.00 | 0.00 | 93 | 1018.8 |
| 20260903043032 | 61 | 96 | 0.0 | 2.0 | 0.00 | 0.00 | 0.00 | 93 | 1019.1 |
| 20260903042533 | 61 | 96 | 0.0 | 1.0 | 0.00 | 0.00 | 0.00 | 93 | 1019.1 |
| 20260903042029 | 61 | 96 | 0.0 | 2.0 | 0.00 | 0.00 | 0.00 | 93 | 1019.2 |
| 20260903041528 | 61 | 96 | 0.0 | 2.0 | 0.00 | 0.00 | 0.00 | 93 | 1019.3 |
| 20260903041033 | 61 | 96 | 0.0 | 2.0 | 0.00 | 0.00 | 0.00 | 93 | 1019.3 |
| 20260903040527 | 61 | 96 | 0.0 | 2.0 | 0.00 | 0.00 | 0.00 | 93 | 1019.2 |
| 20260903040028 | 61 | 96 | 0.0 | 2.0 | 0.00 | 0.00 | 0.00 | 93 | 1019.3 |
| 20260903035528 | 61 | 96 | 0.0 | 2.0 | 0.00 | 0.00 | 0.00 | 93 | 1019.5 |
| 20260903035025 | 61 | 96 | 0.0 | 1.0 | 0.00 | 0.00 | 0.00 | 93 | 1019.3 |
| 20260903034526 | 61 | 96 | 0.0 | 1.0 | 0.00 | 0.00 | 0.00 | 93 | 1019.4 |
| 20260903034025 | 61 | 96 | 0.0 | 1.0 | 0.00 | 0.00 | 0.00 | 93 | 1019.4 |
| 20260903033526 | 61 | 96 | 0.0 | 1.0 | 0.00 | 0.00 | 0.00 | 93 | 1019.6 |
| 20260903033025 | 61 | 96 | 0.0 | 1.0 | 0.00 | 0.00 | 0.00 | 93 | 1019.6 |
| 20260903032626 | 61 | 96 | 0.0 | 1.0 | 0.00 | 0.00 | 0.00 | 93 | 1019.6 |
| 20260903032024 | 61 | 96 | 0.0 | 1.0 | 0.00 | 0.00 | 0.00 | 93 | 1019.5 |
| 20260903031523 | 61 | 96 | 0.0 | 2.0 | 0.00 | 0.00 | 0.00 | 93 | 1019.6 |
| 20260903031023 | 61 | 96 | 0.0 | 2.0 | 0.00 | 0.00 | 0.00 | 93 | 1019.6 |
| 20260903030523 | 61 | 96 | 0.0 | 1.0 | 0.00 | 0.00 | 0.00 | 93 | 1019.4 |
| 20260903030024 | 61 | 96 | 0.0 | 1.0 | 0.00 | 0.00 | 0.00 | 93 | 1019.5 |
| 20260903025522 | 61 | 96 | 0.0 | 2.0 | 0.00 | 0.00 | 0.00 | 93 | 1019.6 |
| 20260903025022 | 61 | 96 | 1.0 | 2.0 | 0.00 | 0.00 | 0.00 | 93 | 1019.6 |
| 20260903024523 | 61 | 96 | 0.0 | 1.0 | 0.00 | 0.00 | 0.00 | 93 | 1019.7 |
| 20260903024023 | 61 | 96 | 0.0 | 2.0 | 0.00 | 0.00 | 0.00 | 92 | 1019.7 |
| 20260903023522 | 61 | 96 | 0.0 | 2.0 | 0.00 | 0.00 | 0.00 | 92 | 1019.9 |
| 20260903023025 | 61 | 96 | 0.0 | 2.0 | 0.00 | 0.00 | 0.00 | 93 | 1020.0 |
| 20260903022521 | 61 | 94 | 0.0 | 1.0 | 0.00 | 0.00 | 0.00 | 92 | 1020.0 |
| 20260903022021 | 61 | 94 | 0.0 | 2.0 | 0.00 | 0.00 | 0.00 | 92 | 1020.0 |
| 20260903021522 | 61 | 87 | 0.0 | 3.0 | 0.00 | 0.00 | 0.00 | 92 | 1020.0 |
| 20260903021021 | 61 | 88 | 0.0 | 3.0 | 0.00 | 0.00 | 0.00 | 92 | 1020.0 |
| 20260903020520 | 61 | 125 | 0.0 | 2.0 | 0.00 | 0.00 | 0.00 | 92 | 1020.1 |
| 20260903020021 | 61 | 130 | 0.0 | 2.0 | 0.00 | 0.00 | 0.00 | 92 | 1020.0 |
| 20260903015522 | 61 | 130 | 0.0 | 3.0 | 0.00 | 0.00 | 0.00 | 92 | 1020.0 |
| 20260903015021 | 61 | 130 | 1.0 | 3.0 | 0.00 | 0.00 | 0.00 | 92 | 1020.0 |
| 20260903014520 | 61 | 111 | 0.0 | 3.0 | 0.00 | 0.00 | 0.00 | 92 | 1019.9 |
| 20260903014020 | 61 | 126 | 0.0 | 3.0 | 0.00 | 0.00 | 0.00 | 92 | 1020.1 |
| 20260903013520 | 60 | 112 | 0.0 | 2.0 | 0.00 | 0.00 | 0.00 | 92 | 1020.0 |
| 20260903013020 | 60 | 109 | 0.0 | 2.0 | 0.00 | 0.00 | 0.00 | 92 | 1019.7 |
| 20260903012520 | 60 | 109 | 0.0 | 3.0 | 0.00 | 0.00 | 0.00 | 92 | 1019.5 |
| 20260903012019 | 60 | 134 | 0.0 | 4.0 | 0.00 | 0.00 | 0.00 | 92 | 1019.4 |
| 20260903011520 | 60 | 163 | 1.0 | 4.0 | 0.00 | 0.00 | 0.00 | 92 | 1020.2 |
| 20260903011018 | 61 | 151 | 1.0 | 5.0 | 0.00 | 0.00 | 0.00 | 92 | 1019.6 |
| 20260903010519 | 61 | 192 | 1.0 | 6.0 | 0.00 | 0.00 | 0.00 | 92 | 1019.7 |
| 20260903010019 | 61 | 155 | 1.0 | 6.0 | 0.00 | 0.00 | 0.00 | 92 | 1020.1 |
| 20260903005518 | 61 | 169 | 1.0 | 4.0 | 0.00 | 0.00 | 0.00 | 92 | 1019.7 |
| 20260903005022 | 61 | 70 | 1.0 | 4.0 | 0.00 | 0.00 | 0.00 | 92 | 1019.8 |
| 20260903004618 | 61 | 113 | 1.0 | 3.0 | 0.00 | 0.00 | 0.00 | 91 | 1019.7 |
| 20260903004022 | 61 | 88 | 0.0 | 6.0 | 0.00 | 0.00 | 0.00 | 91 | 1020.0 |
| 20260903003518 | 61 | 78 | 1.0 | 6.0 | 0.00 | 0.00 | 0.00 | 91 | 1019.8 |
| 20260903003017 | 61 | 168 | 1.0 | 5.0 | 0.00 | 0.00 | 0.00 | 91 | 1019.3 |
| 20260903002517 | 61 | 97 | 1.0 | 8.0 | 0.00 | 0.00 | 0.00 | 91 | 1019.3 |
| 20260903002022 | 61 | 101 | 2.0 | 8.0 | 0.00 | 0.00 | 0.00 | 91 | 1019.7 |
| 20260903001516 | 61 | 79 | 1.0 | 4.0 | 0.00 | 0.00 | 0.00 | 91 | 1019.4 |
| 20260903001015 | 61 | 121 | 0.0 | 4.0 | 0.00 | 0.00 | 0.00 | 91 | 1020.2 |
| 20260903000515 | 61 | 132 | 0.0 | 3.0 | 0.00 | 0.00 | 0.00 | 91 | 1020.1 |
| 20260903000022 | 61 | 131 | 1.0 | 3.0 | 0.00 | 0.00 | 0.00 | 90 | 1019.8 |
| 20260902235517 | 61 | 118 | 0.0 | 2.0 | 0.00 | 0.00 | 0.00 | 90 | 1020.0 |
| 20260902235014 | 61 | 118 | 0.0 | 2.0 | 0.00 | 0.00 | 0.00 | 90 | 1020.7 |
| 20260902234516 | 61 | 118 | 0.0 | 2.0 | 0.00 | 0.00 | 0.00 | 90 | 1020.7 |
| 20260902234014 | 61 | 118 | 0.0 | 2.0 | 0.00 | 0.00 | 0.00 | 90 | 1020.7 |
| 20260902233514 | 61 | 119 | 0.0 | 2.0 | 0.00 | 0.00 | 0.00 | 90 | 1020.7 |
| 20260902233015 | 61 | 119 | 0.0 | 2.0 | 0.00 | 0.00 | 0.00 | 90 | 1020.5 |
| 20260902232514 | 61 | 119 | 0.0 | 2.0 | 0.00 | 0.00 | 0.00 | 90 | 1020.6 |
| 20260902232015 | 61 | 111 | 0.0 | 2.0 | 0.00 | 0.00 | 0.00 | 90 | 1020.5 |
| 20260902231522 | 61 | 115 | 0.0 | 2.0 | 0.00 | 0.00 | 0.00 | 90 | 1020.7 |
| 20260902231015 | 61 | 96 | 0.0 | 2.0 | 0.00 | 0.00 | 0.00 | 90 | 1020.6 |
| 20260902230514 | 61 | 92 | 0.0 | 2.0 | 0.00 | 0.00 | 0.00 | 90 | 1020.6 |
| 20260902230013 | 61 | 93 | 0.0 | 2.0 | 0.00 | 0.00 | 0.00 | 89 | 1020.8 |
| 20260902225513 | 61 | 92 | 0.0 | 4.0 | 0.00 | 0.00 | 0.00 | 89 | 1020.9 |
| 20260902225013 | 61 | 84 | 1.0 | 4.0 | 0.00 | 0.00 | 0.00 | 89 | 1020.9 |
| 20260902224512 | 61 | 130 | 0.0 | 3.0 | 0.00 | 0.00 | 0.00 | 89 | 1021.3 |
| 20260902224012 | 61 | 132 | 0.0 | 2.0 | 0.00 | 0.00 | 0.00 | 89 | 1021.2 |
| 20260902223512 | 61 | 130 | 0.0 | 0.0 | 0.00 | 0.00 | 0.00 | 89 | 1021.1 |
| 20260902223012 | 61 | 97 | 0.0 | 2.0 | 0.00 | 0.00 | 0.00 | 89 | 1021.2 |
| 20260902222512 | 61 | 146 | 0.0 | 7.0 | 0.00 | 0.00 | 0.00 | 89 | 1021.2 |
| 20260902222014 | 61 | 116 | 1.0 | 5.0 | 0.00 | 0.00 | 0.00 | 88 | 1021.3 |
| 20260902221516 | 61 | 59 | 0.0 | 5.0 | 0.00 | 0.00 | 0.00 | 88 | 1021.2 |
| 20260902221010 | 61 | 141 | 1.0 | 6.0 | 0.00 | 0.00 | 0.00 | 88 | 1021.1 |
| 20260902220613 | 62 | 202 | 1.0 | 6.0 | 0.00 | 0.00 | 0.00 | 88 | 1021.2 |
| 20260902220014 | 62 | 179 | 2.0 | 4.0 | 0.00 | 0.00 | 0.00 | 88 | 1021.0 |
| 20260902215509 | 62 | 130 | 0.0 | 4.0 | 0.00 | 0.00 | 0.00 | 88 | 1021.0 |
| 20260902215009 | 62 | 145 | 1.0 | 4.0 | 0.00 | 0.00 | 0.00 | 88 | 1021.1 |
| 20260902214510 | 62 | 65 | 1.0 | 4.0 | 0.00 | 0.00 | 0.00 | 88 | 1021.1 |
| 20260902214010 | 62 | 110 | 1.0 | 5.0 | 0.00 | 0.00 | 0.00 | 88 | 1021.2 |
| 20260902213509 | 62 | 131 | 2.0 | 7.0 | 0.00 | 0.00 | 0.00 | 88 | 1021.1 |
| 20260902213010 | 62 | 292 | 1.0 | 7.0 | 0.00 | 0.00 | 0.00 | 88 | 1021.2 |
| 20260902212509 | 62 | 70 | 1.0 | 7.0 | 0.00 | 0.00 | 0.00 | 87 | 1021.1 |
| 20260902212010 | 62 | 90 | 2.0 | 7.0 | 0.00 | 0.00 | 0.00 | 87 | 1021.1 |
| 20260902211511 | 62 | 118 | 1.0 | 4.0 | 0.00 | 0.00 | 0.00 | 87 | 1021.2 |
| 20260902211008 | 62 | 69 | 1.0 | 7.0 | 0.00 | 0.00 | 0.00 | 87 | 1021.2 |
| 20260902210509 | 62 | 164 | 2.0 | 7.0 | 0.00 | 0.00 | 0.00 | 87 | 1021.2 |
| 20260902210007 | 62 | 127 | 1.0 | 5.0 | 0.00 | 0.00 | 0.00 | 87 | 1021.4 |
| 20260902205507 | 62 | 123 | 2.0 | 5.0 | 0.00 | 0.00 | 0.00 | 87 | 1021.4 |
| 20260902205007 | 62 | 127 | 2.0 | 5.0 | 0.00 | 0.00 | 0.00 | 87 | 1021.5 |
| 20260902204507 | 62 | 129 | 1.0 | 5.0 | 0.00 | 0.00 | 0.00 | 86 | 1021.6 |
| 20260902204006 | 62 | 132 | 2.0 | 6.0 | 0.00 | 0.00 | 0.00 | 87 | 1021.7 |
| 20260902203506 | 62 | 174 | 1.0 | 6.0 | 0.00 | 0.00 | 0.00 | 86 | 1021.5 |
| 20260902203008 | 63 | 157 | 2.0 | 6.0 | 0.00 | 0.00 | 0.00 | 86 | 1021.5 |
| 20260902202507 | 63 | 103 | 2.0 | 6.0 | 0.00 | 0.00 | 0.00 | 86 | 1021.3 |
| 20260902202006 | 63 | 99 | 1.0 | 6.0 | 0.00 | 0.00 | 0.00 | 86 | 1021.4 |
| 20260902201505 | 63 | 153 | 2.0 | 7.0 | 0.00 | 0.00 | 0.00 | 86 | 1021.5 |
| 20260902201005 | 63 | 149 | 2.0 | 8.0 | 0.00 | 0.00 | 0.00 | 86 | 1021.6 |
| 20260902200505 | 63 | 350 | 2.0 | 8.0 | 0.00 | 0.00 | 0.00 | 85 | 1021.6 |
| 20260902200005 | 63 | 173 | 2.0 | 5.0 | 0.00 | 0.00 | 0.00 | 85 | 1021.8 |
| 20260902195504 | 63 | 126 | 1.0 | 4.0 | 0.00 | 0.00 | 0.00 | 85 | 1022.0 |
| 20260902195007 | 63 | 110 | 1.0 | 7.0 | 0.00 | 0.00 | 0.00 | 84 | 1022.1 |
| 20260902194504 | 63 | 138 | 1.0 | 7.0 | 0.00 | 0.00 | 0.00 | 84 | 1022.0 |
| 20260902194004 | 63 | 115 | 2.0 | 5.0 | 0.00 | 0.00 | 0.00 | 84 | 1022.1 |
| 20260902193504 | 63 | 224 | 1.0 | 6.0 | 0.00 | 0.00 | 0.00 | 84 | 1022.1 |
| 20260902193004 | 64 | 99 | 2.0 | 6.0 | 0.00 | 0.00 | 0.00 | 84 | 1022.2 |
| 20260902192504 | 64 | 56 | 1.0 | 4.0 | 0.00 | 0.00 | 0.00 | 84 | 1022.2 |
| 20260902192004 | 64 | 87 | 1.0 | 5.0 | 0.00 | 0.00 | 0.00 | 85 | 1022.1 |
| 20260902191504 | 63 | 205 | 2.0 | 5.0 | 0.00 | 0.00 | 0.00 | 84 | 1022.2 |
| 20260902191003 | 64 | 50 | 1.0 | 7.0 | 0.00 | 0.00 | 0.00 | 84 | 1022.1 |
| 20260902190503 | 64 | 178 | 2.0 | 7.0 | 0.00 | 0.00 | 0.00 | 83 | 1022.1 |
| 20260902190007 | 64 | 71 | 1.0 | 6.0 | 0.00 | 0.00 | 0.00 | 84 | 1022.1 |
| 20260902185503 | 64 | 92 | 1.0 | 7.0 | 0.00 | 0.00 | 0.00 | 84 | 1022.0 |
| 20260902185002 | 64 | 105 | 2.0 | 7.0 | 0.00 | 0.00 | 0.00 | 83 | 1022.3 |
| 20260902184503 | 64 | 159 | 2.0 | 6.0 | 0.00 | 0.00 | 0.00 | 83 | 1022.2 |
| 20260902184002 | 64 | 136 | 2.0 | 9.0 | 0.00 | 0.00 | 0.00 | 83 | 1022.1 |
| 20260902183503 | 64 | 90 | 1.0 | 7.0 | 0.00 | 0.00 | 0.00 | 83 | 1022.1 |
| 20260902183002 | 64 | 119 | 2.0 | 7.0 | 0.00 | 0.00 | 0.00 | 82 | 1022.0 |
| 20260902182502 | 64 | 128 | 2.0 | 6.0 | 0.00 | 0.00 | 0.00 | 82 | 1022.1 |
| 20260902182003 | 64 | 59 | 2.0 | 7.0 | 0.00 | 0.00 | 0.00 | 82 | 1022.1 |
| 20260902181502 | 65 | 165 | 3.0 | 7.0 | 0.00 | 0.00 | 0.00 | 81 | 1022.1 |
| 20260902181001 | 65 | 57 | 2.0 | 6.0 | 0.00 | 0.00 | 0.00 | 82 | 1022.2 |
| 20260902180501 | 65 | 153 | 2.0 | 6.0 | 0.00 | 0.00 | 0.00 | 81 | 1022.2 |
| 20260902180007 | 65 | 172 | 2.0 | 6.0 | 0.00 | 0.00 | 0.00 | 81 | 1022.1 |
| 20260902175504 | 65 | 84 | 1.0 | 6.0 | 0.00 | 0.00 | 0.00 | 80 | 1022.1 |
| 20260902175102 | 65 | 185 | 1.0 | 6.0 | 0.00 | 0.00 | 0.00 | 80 | 1022.0 |
| 20260902174601 | 66 | 151 | 2.0 | 6.0 | 0.00 | 0.00 | 0.00 | 79 | 1022.0 |
| 20260902174059 | 66 | 128 | 2.0 | 7.0 | 0.00 | 0.00 | 0.00 | 79 | 1022.1 |
| 20260902173559 | 66 | 126 | 2.0 | 9.0 | 0.00 | 0.00 | 0.00 | 78 | 1022.0 |
| 20260902173059 | 66 | 67 | 2.0 | 9.0 | 0.00 | 0.00 | 0.00 | 78 | 1022.1 |
| 20260902172558 | 66 | 295 | 1.0 | 9.0 | 0.00 | 0.00 | 0.00 | 78 | 1022.1 |
| 20260902172058 | 66 | 189 | 4.0 | 9.0 | 0.00 | 0.00 | 0.00 | 78 | 1022.2 |
| 20260902171618 | 66 | 58 | 1.0 | 6.0 | 0.00 | 0.00 | 0.00 | 78 | 1022.1 |
| 20260902171100 | 66 | 140 | 2.0 | 6.0 | 0.00 | 0.00 | 0.00 | 78 | 1021.9 |
| 20260902170557 | 66 | 136 | 1.0 | 8.0 | 0.00 | 0.00 | 0.00 | 78 | 1022.0 |
| 20260902170057 | 66 | 90 | 3.0 | 8.0 | 0.00 | 0.00 | 0.00 | 78 | 1021.9 |
| 20260902165557 | 66 | 98 | 3.0 | 8.0 | 0.00 | 0.00 | 0.00 | 78 | 1021.9 |
| 20260902165059 | 66 | 90 | 1.0 | 9.0 | 0.00 | 0.00 | 0.00 | 78 | 1022.0 |
| 20260902164601 | 66 | 92 | 3.0 | 9.0 | 0.00 | 0.00 | 0.00 | 78 | 1022.1 |
| 20260902164058 | 66 | 265 | 2.0 | 9.0 | 0.00 | 0.00 | 0.00 | 78 | 1022.2 |
| 20260902163559 | 66 | 194 | 1.0 | 6.0 | 0.00 | 0.00 | 0.00 | 78 | 1022.2 |
| 20260902163056 | 66 | 123 | 2.0 | 9.0 | 0.00 | 0.00 | 0.00 | 78 | 1022.4 |
| 20260902162600 | 66 | 86 | 2.0 | 8.0 | 0.00 | 0.00 | 0.00 | 77 | 1022.4 |
| 20260902162059 | 67 | 155 | 4.0 | 8.0 | 0.00 | 0.00 | 0.00 | 75 | 1022.4 |
| 20260902161556 | 67 | 185 | 3.0 | 9.0 | 0.00 | 0.00 | 0.00 | 74 | 1022.4 |
| 20260902161056 | 68 | 72 | 4.0 | 8.0 | 0.00 | 0.00 | 0.00 | 75 | 1022.4 |
| 20260902160555 | 68 | 98 | 1.0 | 7.0 | 0.00 | 0.00 | 0.00 | 76 | 1022.6 |
| 20260902160057 | 68 | 51 | 2.0 | 6.0 | 0.00 | 0.00 | 0.00 | 75 | 1022.6 |
| 20260902155555 | 68 | 329 | 2.0 | 8.0 | 0.00 | 0.00 | 0.00 | 75 | 1022.6 |
| 20260902155055 | 68 | 190 | 3.0 | 8.0 | 0.00 | 0.00 | 0.00 | 75 | 1022.7 |
| 20260902154555 | 68 | 217 | 3.0 | 8.0 | 0.00 | 0.00 | 0.00 | 74 | 1022.8 |
| 20260902154054 | 68 | 225 | 2.0 | 8.0 | 0.00 | 0.00 | 0.00 | 74 | 1022.7 |
| 20260902153554 | 68 | 355 | 1.0 | 7.0 | 0.00 | 0.00 | 0.00 | 73 | 1022.7 |
| 20260902153055 | 69 | 187 | 2.0 | 7.0 | 0.00 | 0.00 | 0.00 | 73 | 1022.5 |
| 20260902152552 | 69 | 234 | 2.0 | 7.0 | 0.00 | 0.00 | 0.00 | 74 | 1022.5 |
| 20260902152055 | 68 | 84 | 1.0 | 8.0 | 0.00 | 0.00 | 0.00 | 74 | 1022.4 |
| 20260902151552 | 68 | 288 | 2.0 | 6.0 | 0.00 | 0.00 | 0.00 | 74 | 1022.4 |
| 20260902151051 | 68 | 103 | 2.0 | 6.0 | 0.00 | 0.00 | 0.00 | 73 | 1022.4 |
| 20260902150551 | 68 | 156 | 1.0 | 7.0 | 0.00 | 0.00 | 0.00 | 74 | 1022.4 |
| 20260902150051 | 68 | 82 | 2.0 | 5.0 | 0.00 | 0.00 | 0.00 | 73 | 1022.4 |
| 20260902145551 | 68 | 205 | 1.0 | 6.0 | 0.00 | 0.00 | 0.00 | 75 | 1022.4 |
| 20260902145050 | 68 | 110 | 3.0 | 6.0 | 0.00 | 0.00 | 0.00 | 74 | 1022.5 |
| 20260902144557 | 68 | 59 | 1.0 | 4.0 | 0.00 | 0.00 | 0.00 | 74 | 1022.4 |
| 20260902144050 | 68 | 79 | 1.0 | 6.0 | 0.00 | 0.00 | 0.00 | 73 | 1022.5 |
| 20260902143548 | 68 | 188 | 2.0 | 8.0 | 0.00 | 0.00 | 0.00 | 72 | 1022.6 |
| 20260902143048 | 68 | 346 | 2.0 | 8.0 | 0.00 | 0.00 | 0.00 | 73 | 1022.5 |
| 20260902142548 | 69 | 47 | 3.0 | 8.0 | 0.00 | 0.00 | 0.00 | 71 | 1022.3 |
| 20260902142048 | 69 | 105 | 3.0 | 7.0 | 0.00 | 0.00 | 0.00 | 72 | 1022.4 |
| 20260902141552 | 69 | 26 | 1.0 | 6.0 | 0.00 | 0.00 | 0.00 | 71 | 1022.3 |
| 20260902141045 | 69 | 83 | 2.0 | 9.0 | 0.00 | 0.00 | 0.00 | 72 | 1022.1 |
| 20260902140544 | 69 | 53 | 1.0 | 6.0 | 0.00 | 0.00 | 0.00 | 73 | 1022.2 |
| 20260902140043 | 68 | 105 | 2.0 | 7.0 | 0.00 | 0.00 | 0.00 | 73 | 1022.0 |
| 20260902135543 | 68 | 95 | 1.0 | 8.0 | 0.00 | 0.00 | 0.00 | 75 | 1022.0 |
| 20260902135042 | 68 | 111 | 3.0 | 8.0 | 0.00 | 0.00 | 0.00 | 74 | 1022.1 |
| 20260902134545 | 68 | 88 | 2.0 | 7.0 | 0.00 | 0.00 | 0.00 | 76 | 1022.2 |
| 20260902134040 | 67 | 91 | 2.0 | 6.0 | 0.00 | 0.00 | 0.00 | 77 | 1022.2 |
| 20260902133539 | 67 | 142 | 1.0 | 6.0 | 0.00 | 0.00 | 0.00 | 75 | 1022.4 |
| 20260902133041 | 67 | 98 | 1.0 | 5.0 | 0.00 | 0.00 | 0.00 | 76 | 1022.2 |
| 20260902132537 | 67 | 5 | 2.0 | 5.0 | 0.00 | 0.00 | 0.00 | 77 | 1022.0 |
| 20260902132037 | 67 | 143 | 1.0 | 3.0 | 0.00 | 0.00 | 0.00 | 78 | 1022.2 |
| 20260902131535 | 67 | 112 | 0.0 | 3.0 | 0.00 | 0.00 | 0.00 | 79 | 1022.0 |
| 20260902131037 | 66 | 132 | 0.0 | 3.0 | 0.00 | 0.00 | 0.00 | 79 | 1022.0 |
| 20260902130535 | 66 | 161 | 0.0 | 5.0 | 0.00 | 0.00 | 0.00 | 79 | 1022.1 |
| 20260902130036 | 66 | 143 | 0.0 | 6.0 | 0.00 | 0.00 | 0.00 | 83 | 1022.0 |
| 20260902125531 | 65 | 188 | 1.0 | 6.0 | 0.00 | 0.00 | 0.00 | 82 | 1021.9 |
| 20260902125030 | 65 | 69 | 1.0 | 6.0 | 0.00 | 0.00 | 0.00 | 83 | 1022.0 |
| 20260902124530 | 65 | 19 | 3.0 | 9.0 | 0.00 | 0.00 | 0.00 | 84 | 1021.9 |
| 20260902124029 | 64 | 14 | 4.0 | 9.0 | 0.00 | 0.00 | 0.00 | 85 | 1021.8 |
| 20260902123528 | 64 | 360 | 3.0 | 6.0 | 0.00 | 0.00 | 0.00 | 88 | 1021.8 |
| 20260902123026 | 64 | 33 | 2.0 | 6.0 | 0.00 | 0.00 | 0.00 | 90 | 1022.0 |
| 20260902122526 | 64 | 17 | 3.0 | 7.0 | 0.00 | 0.00 | 0.00 | 91 | 1022.0 |
| 20260902122024 | 63 | 46 | 2.0 | 8.0 | 0.00 | 0.00 | 0.00 | 92 | 1022.1 |
| 20260902121523 | 63 | 28 | 3.0 | 9.0 | 0.00 | 0.00 | 0.00 | 94 | 1022.0 |
| 20260902121022 | 63 | 24 | 1.0 | 9.0 | 0.00 | 0.00 | 0.00 | 95 | 1022.0 |
| 20260902120523 | 62 | 5 | 1.0 | 4.0 | 0.00 | 0.00 | 0.00 | 95 | 1022.1 |
| 20260902120021 | 62 | 338 | 2.0 | 6.0 | 0.00 | 0.00 | 0.00 | 95 | 1022.3 |
| 20260902115525 | 62 | 33 | 1.0 | 6.0 | 0.00 | 0.00 | 0.00 | 96 | 1022.1 |
| 20260902115019 | 62 | 342 | 1.0 | 6.0 | 0.00 | 0.00 | 0.00 | 96 | 1022.1 |
| 20260902114524 | 62 | 28 | 3.0 | 6.0 | 0.00 | 0.00 | 0.00 | 96 | 1021.9 |
| 20260902114019 | 62 | 21 | 1.0 | 4.0 | 0.00 | 0.00 | 0.00 | 96 | 1021.8 |
| 20260902113517 | 62 | 22 | 1.0 | 4.0 | 0.00 | 0.00 | 0.00 | 96 | 1021.8 |
| 20260902113018 | 61 | 360 | 2.0 | 4.0 | 0.00 | 0.00 | 0.00 | 96 | 1021.8 |
| 20260902112515 | 61 | 37 | 1.0 | 4.0 | 0.00 | 0.00 | 0.00 | 96 | 1021.6 |
| 20260902112016 | 61 | 50 | 1.0 | 4.0 | 0.00 | 0.00 | 0.00 | 96 | 1021.7 |
| 20260902111515 | 61 | 48 | 2.0 | 4.0 | 0.00 | 0.00 | 0.00 | 96 | 1021.7 |
| 20260902111012 | 61 | 42 | 2.0 | 4.0 | 0.00 | 0.00 | 0.00 | 96 | 1021.6 |
| 20260902110516 | 61 | 28 | 0.0 | 2.0 | 0.00 | 0.00 | 0.00 | 96 | 1021.6 |
| 20260902110011 | 61 | 28 | 0.0 | 3.0 | 0.00 | 0.00 | 0.00 | 96 | 1021.6 |
| 20260902105510 | 60 | 27 | 0.0 | 2.0 | 0.00 | 0.00 | 0.00 | 96 | 1021.4 |
| 20260902105015 | 60 | 27 | 0.0 | 1.0 | 0.00 | 0.00 | 0.00 | 96 | 1021.4 |
| 20260902104513 | 60 | 27 | 0.0 | 2.0 | 0.00 | 0.00 | 0.00 | 96 | 1021.4 |
| 20260902104009 | 60 | 27 | 0.0 | 2.0 | 0.00 | 0.00 | 0.00 | 96 | 1021.6 |
| 20260902103507 | 60 | 27 | 0.0 | 2.0 | 0.00 | 0.00 | 0.00 | 96 | 1021.6 |
| 20260902103006 | 60 | 27 | 0.0 | 2.0 | 0.00 | 0.00 | 0.00 | 96 | 1021.6 |
| 20260902102506 | 60 | 28 | 0.0 | 2.0 | 0.00 | 0.00 | 0.00 | 96 | 1021.6 |
| 20260902102006 | 60 | 5 | 0.0 | 2.0 | 0.00 | 0.00 | 0.00 | 96 | 1021.5 |
| 20260902101505 | 60 | 5 | 0.0 | 1.0 | 0.00 | 0.00 | 0.00 | 96 | 1021.5 |
| 20260902101004 | 60 | 5 | 0.0 | 2.0 | 0.00 | 0.00 | 0.00 | 96 | 1021.6 |
| 20260902100504 | 60 | 5 | 0.0 | 3.0 | 0.00 | 0.00 | 0.00 | 96 | 1021.6 |
| 20260902100004 | 60 | 44 | 0.0 | 3.0 | 0.00 | 0.00 | 0.00 | 96 | 1021.5 |
| 20260902095504 | 60 | 48 | 0.0 | 0.0 | 0.00 | 0.00 | 0.00 | 96 | 1021.5 |
| 20260902095003 | 60 | 48 | 0.0 | 0.0 | 0.00 | 0.00 | 0.00 | 96 | 1021.5 |
| 20260902094503 | 60 | 48 | 0.0 | 0.0 | 0.00 | 0.00 | 0.00 | 96 | 1021.5 |
| 20260902094003 | 60 | 48 | 0.0 | 0.0 | 0.00 | 0.00 | 0.00 | 96 | 1021.4 |
| 20260902093503 | 60 | 48 | 0.0 | 1.0 | 0.00 | 0.00 | 0.00 | 96 | 1021.5 |
| 20260902093003 | 60 | 48 | 0.0 | 2.0 | 0.00 | 0.00 | 0.00 | 96 | 1021.4 |
| 20260902092505 | 60 | 48 | 0.0 | 3.0 | 0.00 | 0.00 | 0.00 | 96 | 1021.4 |
| 20260902092002 | 60 | 48 | 1.0 | 3.0 | 0.00 | 0.00 | 0.00 | 96 | 1021.3 |
| 20260902091502 | 60 | 45 | 1.0 | 3.0 | 0.00 | 0.00 | 0.00 | 96 | 1021.3 |
| 20260902091105 | 60 | 65 | 0.0 | 3.0 | 0.00 | 0.00 | 0.00 | 95 | 1021.4 |